STARLINK-1926 (46757 NORAD) Tracking and Keplerian Element Data

This shows tracking and keplerian element data for the satellite.

Feedback or suggestion? Click here.




ElementValue
Catalog46757
NameSTARLINK-1926
Epoch Orbit562
Epoch Day331.16668981
Epoch Year2020
RAAN0.7553
Inclination53.0549
Eccentricity0.0001169
Argument of Perigee70.0397
Mean Anonmoly150.7734
Mean Motion15.62770397
Decay Rate0.00030271
L11 46757U 20074U 20331.16668981 .00030271 00000-0 33498-3 0 9999
L22 46757 53.0549 0.7553 0001169 70.0397 150.7734 15.62770397 5627

Live tracking and technical data element details for STARLINK-1926 (NORAD 46757). STARLINK-1926 can be tracked NOW for your location showing map with azimuth and elevation plus other details from your city location.

Track the satellite on the map from your city or location and see movement details for azimuth, elevation, latitude, longitude, range, height, and movement on the map or in text.







IsCatalogInMostPopularTable: catalog: 46757, numindb: 5
Update: records affected: 1



GetName: 46757 STARLINK-1926

Hit Count: updated at: Thu, 26 Nov 2020 18:04:41 GMT